North Adams, MA

8:29 PM EST on December 06, 2019 (GMT -0500)
Harriman And West

Weather History for KAQW - August, 2019

Change the Weather History Date:

Friday, August 23, 2019

  Actual Average Record
Temperature  
Mean Temperature 64 °F -  
Max Temperature 73 °F 76 °F 82 °F (1996)
Min Temperature 54 °F 53 °F 46 °F (2016)
Degree Days  
Heating Degree Days 2    
Growing Degree Days 14 (Base 50)    
Moisture  
Dew Point 56 °F    
Average Humidity 80    
Maximum Humidity 100    
Minimum Humidity 55    
Precipitation  
Precipitation 0.00 in - - ()
Sea Level Pressure  
Sea Level Pressure 30.01 in    
Wind  
Wind Speed 3 mph ()    
Max Wind Speed 10 mph    
Max Gust Speed -    
Visibility 9.9 miles    
Events      
Averages and records for this station are not official NWS values.
T = Trace of Precipitation, MM = Missing Value Source: Averaged Metar Reports

Daily Weather History Graph

Daily Weather History Graph

Search for Another Location

Airport or City:

Astronomy

Aug. 23, 2019 Rise Set
Actual Time 6:07 AM EDT 7:42 PM EDT
Civil Twilight 5:37 AM EDT 8:12 PM EDT
Nautical Twilight 5:01 AM EDT 8:47 PM EDT
Astronomical Twilight 4:23 AM EDT 9:26 PM EDT
Moon 11:57 PM EDT (8/23) 1:52 PM EDT (8/23)
Length of Visible Light 14h 34m
Length of Day
13h 34m
Waning Gibbous, 50% of the Moon is Illuminated
Aug 23
Waning Gibbous
Aug 30
New
Sep 5
First Quarter
Sep 14
Full
Sep 21
Last Quarter

Hourly Weather History & Observations

Time (EDT) Temp. Dew Point Humidity Pressure Visibility Wind Dir Wind Speed Gust Speed Precip Events Conditions
12:52 AM 64.9 °F 54.0 °F 68% 29.95 in 10.0 mi West 10.4 mph - N/A   Mostly Cloudy
1:52 AM 63.0 °F 52.0 °F 67% 29.95 in 10.0 mi West 9.2 mph - N/A   Clear
2:52 AM 59.0 °F 54.0 °F 83% 29.95 in 10.0 mi NE 3.5 mph - N/A   Clear
3:52 AM 55.9 °F 54.0 °F 93% 29.96 in 10.0 mi Calm Calm - N/A   Clear
4:52 AM 55.0 °F 54.0 °F 96% 29.97 in 10.0 mi Calm Calm - N/A   Clear
5:52 AM 55.9 °F 55.0 °F 97% 29.98 in 10.0 mi Calm Calm - N/A   Clear
6:52 AM 55.9 °F 55.0 °F 97% 30.00 in 10.0 mi West 3.5 mph - N/A   Clear
7:52 AM 57.9 °F 55.9 °F 93% 30.01 in 10.0 mi Calm Calm - N/A   Clear
8:52 AM 59.0 °F 55.9 °F 90% 30.02 in 10.0 mi West 3.5 mph - N/A   Clear
9:52 AM 63.0 °F 55.9 °F 78% 30.03 in 10.0 mi Calm Calm - N/A   Clear
10:52 AM 68.0 °F 55.9 °F 65% 30.02 in 10.0 mi Variable 4.6 mph - N/A   Clear
11:52 AM 70.0 °F 55.9 °F 61% 30.01 in 10.0 mi WSW 5.8 mph - N/A   Clear
12:52 PM 70.0 °F 54.0 °F 57% 30.01 in 10.0 mi Variable 5.8 mph - N/A   Partly Cloudy
1:52 PM 71.1 °F 55.0 °F 57% 30.00 in 10.0 mi Variable 4.6 mph - N/A   Clear
2:52 PM 72.0 °F 55.0 °F 55% 30.00 in 10.0 mi Variable 5.8 mph - N/A   Clear
3:52 PM 71.1 °F 55.0 °F 57% 30.01 in 10.0 mi Calm Calm - N/A   Clear
4:52 PM 71.1 °F 55.9 °F 59% 30.01 in 10.0 mi Calm Calm - N/A   Clear
5:52 PM 66.9 °F 61.0 °F 81% 30.01 in 10.0 mi Calm Calm - N/A   Clear
6:52 PM 66.0 °F 60.1 °F 81% 30.03 in 10.0 mi Calm Calm - N/A   Clear
7:52 PM 62.1 °F 59.0 °F 90% 30.04 in 10.0 mi Calm Calm - N/A   Clear
8:52 PM 57.9 °F 57.0 °F 97% 30.06 in 10.0 mi Calm Calm - N/A   Clear
9:52 PM 55.9 °F 55.9 °F 100% 30.07 in 10.0 mi Calm Calm - N/A   Clear
10:52 PM 55.9 °F 55.0 °F 97% 30.09 in 10.0 mi Calm Calm - N/A   Mostly Cloudy
11:52 PM 54.0 °F 53.1 °F 97% 30.11 in 7.0 mi Calm Calm - N/A   Clear